Weather History for Madisonville, KY

Change the Weather History Date:

Tuesday, September 25, 2012

  Actual Average (KOWB) Record (KOWB)
Temperature  
Mean Temperature 70 °F -  
Max Temperature 85 °F 77 °F 91 °F (1973)
Min Temperature 56 °F 54 °F 34 °F (1965)
Cooling Degree Days 6    
Growing Degree Days 20 (Base 50)    
Moisture  
Dew Point 60 °F    
Average Humidity 69    
Maximum Humidity 85    
Minimum Humidity 57    
Precipitation  
Precipitation 0.00 in - - ()
Sea Level Pressure  
Sea Level Pressure 30.01 in    
Wind  
Wind Speed 6 mph ()    
Max Wind Speed 17 mph    
Max Gust Speed 22 mph    
Visibility 10.0 miles    
Events      
Averages and records for this station are not official NWS values.
T = Trace of Precipitation, MM = Missing Value Source: Averaged Metar Reports

Daily Weather History Graph

Daily Weather History Graph

Search for Another Location

Airport:

Trip Planner

Search our weather history database for the weather conditions in past years. The results will help you decide how hot, cold, wet, or windy it might be!

Date:

Astronomy

Sep. 25, 2012 Rise Set
Actual Time 6:40 AM CDT 6:41 PM CDT
Civil Twilight 6:14 AM CDT 7:07 PM CDT
Nautical Twilight 5:43 AM CDT 7:37 PM CDT
Astronomical Twilight 5:13 AM CDT 8:08 PM CDT
Moon 4:01 PM CDT (9/25) 2:06 AM CDT (9/25)
Length of Visible Light 12h 52m
Length of Day
12h 00m
Waxing Gibbous, 80% of the Moon is Illuminated
Sep 25
Waxing Gibbous
Sep 29
Full
Oct 8
Last Quarter
Oct 15
New
Oct 21
First Quarter

Hourly Weather History & Observations

Time (CDT) Temp. Heat Index Dew Point Humidity Pressure Visibility Wind Dir Wind Speed Gust Speed Precip Events Conditions
12:15 AM 61.0 °F - 49.3 °F 65% 30.05 in 10.0 mi Calm Calm - N/A   Overcast
12:35 AM 60.3 °F - 49.3 °F 67% 30.05 in 10.0 mi Calm Calm - N/A   Overcast
12:55 AM 57.9 °F - 50.9 °F 77% 30.06 in 10.0 mi Calm Calm - N/A   Mostly Cloudy
1:15 AM 57.7 °F - 50.4 °F 76% 30.05 in 10.0 mi Calm Calm - N/A   Scattered Clouds
1:35 AM 57.2 °F - 50.0 °F 77% 30.04 in 10.0 mi South 4.6 mph - N/A   Clear
1:55 AM 56.7 °F - 49.6 °F 77% 30.05 in 10.0 mi Calm Calm - N/A   Clear
2:15 AM 57.4 °F - 50.0 °F 76% 30.05 in 10.0 mi SSW 3.5 mph - N/A   Clear
2:35 AM 58.1 °F - 50.4 °F 75% 30.04 in 10.0 mi South 3.5 mph - N/A   Clear
2:55 AM 59.0 °F - 50.9 °F 74% 30.04 in 10.0 mi South 3.5 mph - N/A   Clear
3:15 AM 59.7 °F - 50.9 °F 73% 30.03 in 10.0 mi South 4.6 mph - N/A   Clear
3:35 AM 60.1 °F - 50.7 °F 71% 30.03 in 10.0 mi SSW 6.9 mph - N/A   Clear
3:55 AM 59.4 °F - 50.9 °F 74% 30.02 in 10.0 mi South 5.8 mph - N/A   Clear
4:15 AM 59.5 °F - 50.9 °F 73% 30.00 in 10.0 mi South 6.9 mph - N/A   Clear
4:35 AM 59.4 °F - 50.9 °F 74% 30.00 in 10.0 mi South 5.8 mph - N/A   Clear
4:55 AM 59.9 °F - 51.6 °F 74% 30.01 in 10.0 mi SSW 3.5 mph - N/A   Clear
5:15 AM 59.9 °F - 52.0 °F 75% 30.01 in 10.0 mi South 5.8 mph - N/A   Clear
5:35 AM 61.9 °F - 52.0 °F 70% 30.01 in 10.0 mi SSW 9.2 mph - N/A   Scattered Clouds
5:55 AM 62.8 °F - 52.0 °F 68% 29.99 in 10.0 mi SSW 10.4 mph - N/A   Scattered Clouds
6:15 AM 63.5 °F - 52.3 °F 67% 29.99 in 10.0 mi SSW 9.2 mph - N/A   Mostly Cloudy
6:35 AM 64.4 °F - 52.7 °F 66% 29.99 in 10.0 mi SSW 10.4 mph - N/A   Mostly Cloudy
6:55 AM 64.4 °F - 52.9 °F 66% 30.00 in 10.0 mi SSW 11.5 mph - N/A   Scattered Clouds
7:15 AM 64.4 °F - 53.2 °F 67% 30.00 in 10.0 mi SSW 12.7 mph - N/A   Scattered Clouds
7:35 AM 64.4 °F - 53.6 °F 68% 30.00 in 10.0 mi SSW 10.4 mph 17.3 mph N/A   Scattered Clouds
7:55 AM 64.6 °F - 54.0 °F 68% 30.00 in 10.0 mi SW 12.7 mph 18.4 mph N/A   Scattered Clouds
8:15 AM 64.8 °F - 54.3 °F 69% 30.01 in 10.0 mi SW 10.4 mph - N/A   Clear
8:35 AM 65.5 °F - 55.4 °F 70% 30.02 in 10.0 mi SW 12.7 mph 16.1 mph N/A   Clear
8:55 AM 66.4 °F - 56.1 °F 69% 30.03 in 10.0 mi SW 5.8 mph - N/A   Mostly Cloudy
9:15 AM 67.3 °F - 57.0 °F 70% 30.04 in 10.0 mi SW 3.5 mph - N/A   Scattered Clouds
9:35 AM 68.9 °F - 57.7 °F 68% 30.07 in 10.0 mi North 6.9 mph - N/A   Scattered Clouds
9:55 AM 69.6 °F - 58.1 °F 67% 30.07 in 10.0 mi NNE 3.5 mph - N/A   Overcast
10:15 AM 70.2 °F - 58.3 °F 66% 30.07 in 10.0 mi NNE 8.1 mph - N/A   Mostly Cloudy
10:35 AM 70.3 °F - 58.3 °F 66% 30.06 in 10.0 mi Calm Calm - N/A   Mostly Cloudy
10:55 AM 72.3 °F - 60.4 °F 66% 30.05 in 10.0 mi South 6.9 mph - N/A   Scattered Clouds
11:15 AM 73.4 °F - 61.3 °F 66% 30.04 in 10.0 mi SSW 9.2 mph - N/A   Scattered Clouds
11:35 AM 74.1 °F - 62.6 °F 67% 30.04 in 10.0 mi South 6.9 mph - N/A   Scattered Clouds
11:55 AM 75.4 °F - 63.3 °F 66% 30.04 in 10.0 mi South 8.1 mph - N/A   Scattered Clouds
12:15 PM 78.3 °F - 64.8 °F 63% 30.03 in 10.0 mi South 9.2 mph - N/A   Mostly Cloudy
12:35 PM 80.4 °F 82.6 °F 66.4 °F 62% 30.02 in 10.0 mi SSW 6.9 mph - N/A   Mostly Cloudy
12:55 PM 81.7 °F 84.0 °F 66.7 °F 60% 30.02 in 10.0 mi South 10.4 mph - N/A   Scattered Clouds
1:15 PM 82.9 °F 85.8 °F 68.0 °F 60% 30.01 in 10.0 mi WSW 11.5 mph 18.4 mph N/A   Scattered Clouds
2:15 PM 82.9 °F 85.8 °F 67.6 °F 60% 29.97 in 10.0 mi SW 13.8 mph 19.6 mph N/A   Clear
2:35 PM 84.0 °F 87.0 °F 67.8 °F 58% 29.96 in 10.0 mi SW 17.3 mph - N/A   Clear
2:55 PM 84.7 °F 88.2 °F 68.4 °F 58% 29.96 in 10.0 mi SW 13.8 mph 20.7 mph N/A   Clear
3:15 PM 84.7 °F 88.2 °F 68.5 °F 58% 29.95 in 10.0 mi SW 13.8 mph 19.6 mph N/A   Clear
3:35 PM 85.3 °F 88.8 °F 68.4 °F 57% 29.95 in 10.0 mi SW 16.1 mph 21.9 mph N/A   Clear
3:55 PM 83.3 °F 86.2 °F 67.8 °F 59% 29.95 in 10.0 mi WSW 13.8 mph 21.9 mph N/A   Clear
4:15 PM 84.2 °F 87.9 °F 68.7 °F 60% 29.95 in 10.0 mi SSW 9.2 mph 16.1 mph N/A   Clear
4:35 PM 83.3 °F 86.6 °F 68.5 °F 61% 29.95 in 10.0 mi SW 9.2 mph 19.6 mph N/A   Clear
4:55 PM 82.6 °F 85.9 °F 68.7 °F 63% 29.96 in 10.0 mi SSW 9.2 mph - N/A   Clear
5:15 PM 82.0 °F 85.1 °F 68.5 °F 63% 29.96 in 10.0 mi SSW 8.1 mph - N/A   Clear
5:35 PM 81.5 °F 84.4 °F 68.2 °F 64% 29.96 in 10.0 mi SSW 8.1 mph - N/A   Clear
6:15 PM 80.1 °F 82.6 °F 67.6 °F 66% 29.95 in 10.0 mi SSW 9.2 mph - N/A   Clear
6:35 PM 78.8 °F - 67.1 °F 67% 29.95 in 10.0 mi SSW 6.9 mph - N/A   Clear
6:55 PM 77.9 °F - 67.1 °F 69% 29.96 in 10.0 mi South 5.8 mph - N/A   Clear
7:15 PM 77.2 °F - 66.9 °F 71% 29.96 in 10.0 mi SSW 8.1 mph - N/A   Clear
7:55 PM 75.4 °F - 66.9 °F 75% 29.96 in 10.0 mi South 4.6 mph - N/A   Clear
8:15 PM 75.2 °F - 66.9 °F 75% 29.96 in 10.0 mi South 6.9 mph - N/A   Clear
8:35 PM 75.4 °F - 67.1 °F 75% 29.97 in 10.0 mi South 5.8 mph - N/A   Clear
8:55 PM 75.4 °F - 67.3 °F 76% 29.97 in 10.0 mi SSW 8.1 mph - N/A   Clear
9:15 PM 76.3 °F - 68.0 °F 75% 29.99 in 10.0 mi SSW 10.4 mph - N/A   Clear
9:35 PM 76.5 °F - 68.4 °F 76% 29.99 in 10.0 mi SSW 8.1 mph - N/A   Clear
9:55 PM 76.3 °F - 68.5 °F 77% 30.00 in 10.0 mi SSW 9.2 mph - N/A   Clear
10:15 PM 76.1 °F - 68.9 °F 78% 30.01 in 10.0 mi SW 6.9 mph - N/A   Clear
10:35 PM 75.4 °F - 68.9 °F 80% 30.01 in 10.0 mi SSW 6.9 mph - N/A   Clear
10:55 PM 75.0 °F - 68.9 °F 81% 30.02 in 10.0 mi SW 8.1 mph - N/A   Clear
11:35 PM 73.8 °F - 69.1 °F 85% 30.01 in 10.0 mi SSW 6.9 mph - N/A   Clear